Location: Asheville, NC
(35.6000°N, 82.5500°W)
Time: 03:48:47
(UTC-05:00)

CUTE-I - Pass Details

Date: 03 January 2018
Orbit: 810 x 826 km, 98.7° (Epoch: 20 January)

Event Time Altitude Azimuth Distance (km) Brightness Sun altitude
Rises 06:36:42 0° 17° (NNE) 3,334 ? -12.7°
Reaches altitude 10° 06:39:05 10° 20° (NNE) 2,399 ? -12.2°
Maximum altitude 06:44:20 62° 101° (ESE) 908 ? -11.2°
Drops below altitude 10° 06:49:33 10° 182° (S) 2,386 ? -10.2°
Sets 06:51:54 0° 186° (S) 3,315 ? -9.8°
